Weather in Babadaykhan

Turkmenistan     37°41′24″N   60°23′33″E
temp.,
°C
wind,
m/s
gust,
m/s
humid.,
%
clouds,
%
prec.,
mm/h
press.,
hPa
HPBL,
m
11 april, sun
sun1123:00+24ene59185 0.0 1015145
02:00+22ene58250 0.0 1015111
05:00+20ese44310 0.0 101641
08:00+21e46310 0.0 1017193
11:00+27e55200 0.0 1017991
14:00+29ene54140 0.0 10161856
17:00+29ne6512100 0.0 10141978
20:00+26ne7101577 0.0 1015289
12 april, mon
mon1223:00+23ene9131311 0.0 1016399
02:00+20e7122157 0.0 1017360
05:00+17ene6102688 0.0 1018340
08:00+16ene792693 0.0 1019434
11:00+20e5518100 0.0 1019714
14:00+22ne1115100 0.0 10181053
17:00+23ne551692 0.0 10171030
20:00+21e3418100 0.0 101955
13 april, tue
tue1323:00+19ene332271 0.0 101930
02:00+17e33285 0.0 101924
05:00+16ese33301 0.0 101817
08:00+18e35280 0.0 1020155
11:00+23e44190 0.0 10201158
14:00+26e44171 0.0 10181800
17:00+27ene54170 0.0 10171906
20:00+24ene57190 0.0 1017122
14 april, wed
wed1423:00+22ene591783 0.0 1018156
02:00+20e591857 0.0 1015142
05:00+18e462214 0.0 101581
08:00+19e5824100 0.0 1015283
11:00+25ese5616100 0.0 10151056
14:00+28e541495 0.0 10121774
17:00+28ene54146 0.0 10101988
20:00+25ene571798 0.0 101098
15 april, thu
thu1523:00+23ene5918100 0.0 1011144
02:00+22e51016100 0.0 1010226
05:00+21e61118100 0.0 1010264
08:00+21e6922100 0.0 1012374
11:00+25e223179 0.0 1013857
14:00+28n53248 0.1 10121830
17:00+29n632411 0.1 10112703
20:00+23ene78410 0.1 1012559